Location: Unspecified
(0.0000°N, 0.0000°E)
Time: 11:06:37
(UTC+00:00)

ITAMSAT 1 - Visible Passes

Search period start: 22 May 2019 00:00
Search period end: 01 June 2019 00:00
Orbit: 783 x 797 km, 98.9° (Epoch: 21 May)

Date Brightness Start Highest point End Pass type
(mag) Time Alt. Az. Time Alt. Az. Time Alt. Az.
22 May 8.1 04:22:51 10° NNE 04:27:57 60° ESE 04:33:06 10° S visible
23 May 9.6 03:54:21 10° NE 03:58:38 26° ESE 04:02:56 10° SSE visible
24 May 10.5 03:27:55 10° E 03:29:20 11° ESE 03:30:45 10° ESE visible
24 May 8.0 05:03:34 10° N 05:08:28 44° WNW 05:13:25 10° SSW visible
25 May 7.7 04:33:56 10° NNE 04:39:08 81° ESE 04:44:22 10° S visible
26 May 9.1 04:05:06 10° NE 04:09:48 35° ESE 04:14:31 10° SSE visible
27 May 10.2 03:37:29 10° ENE 03:40:29 16° ESE 03:43:29 10° SE visible
27 May 8.4 05:15:02 10° NNW 05:19:38 32° WNW 05:24:16 10° SW visible
28 May 7.6 04:45:06 10° N 04:50:18 75° WNW 04:55:31 10° SSW visible
29 May 8.6 04:15:58 10° NNE 04:20:58 47° ESE 04:25:58 10° S visible
30 May 9.9 03:47:47 10° NE 03:51:39 21° ESE 03:55:30 10° SSE visible
30 May 8.8 05:26:40 10° NNW 05:30:48 24° WNW 05:34:58 10° SW visible
31 May 7.8 04:56:23 10° N 05:01:28 55° WNW 05:06:34 10° SSW visible
